| time (UTC) | temp C | wind direction | speed KPH | gust KPH | rain 1hr cm | rain 24hr cm | rain mn cm | humidity % | barometer mb |
| 20260509231610 | 30 | 73 | 3.2 | 0.0 | 0.00 | 0.00 | 0.00 | 67 | 1006.0 |
| 20260509230045 | 30 | 91 | 4.8 | 0.0 | 0.00 | 0.00 | 0.00 | 64 | 1005.6 |
| 20260509224640 | 31 | 281 | 3.2 | 0.0 | 0.00 | 0.00 | 0.00 | 63 | 1005.5 |
| 20260509223131 | 31 | 44 | 3.2 | 0.0 | 0.00 | 0.00 | 0.00 | 64 | 1005.3 |
| 20260509220113 | 30 | 339 | 1.6 | 0.0 | 0.00 | 0.00 | 0.00 | 66 | 1005.2 |
| 20260509214501 | 30 | 308 | 3.2 | 0.0 | 0.00 | 0.00 | 0.00 | 69 | 1005.4 |
| 20260509211549 | 28 | 331 | 3.2 | 0.0 | 0.00 | 0.00 | 0.00 | 74 | 1005.5 |
| 20260509210135 | 28 | 323 | 1.6 | 0.0 | 0.00 | 0.00 | 0.00 | 73 | 1005.8 |
| 20260509204628 | 28 | 5 | 3.2 | 0.0 | 0.00 | 0.00 | 0.00 | 73 | 1006.0 |
| 20260509203016 | 28 | 348 | 1.6 | 0.0 | 0.00 | 0.00 | 0.00 | 74 | 1006.3 |
| 20260509201608 | 28 | 17 | 4.8 | 0.0 | 0.00 | 0.00 | 0.00 | 75 | 1006.4 |
| 20260509200200 | 28 | 30 | 4.8 | 0.0 | 0.00 | 0.00 | 0.00 | 75 | 1006.6 |
| 20260509194547 | 27 | 314 | 1.6 | 0.0 | 0.00 | 0.00 | 0.00 | 78 | 1006.7 |
| 20260509193044 | 27 | 309 | 3.2 | 0.0 | 0.00 | 0.00 | 0.00 | 80 | 1006.8 |
| 20260509190025 | 26 | 5 | 3.2 | 0.0 | 0.00 | 0.00 | 0.00 | 82 | 1007.2 |
| 20260509183006 | 26 | 355 | 3.2 | 0.0 | 0.00 | 0.00 | 0.00 | 81 | 1007.5 |
| 20260509181607 | 25 | 167 | 1.6 | 0.0 | 0.00 | 0.00 | 0.00 | 79 | 1007.5 |
| 20260509174538 | 25 | 47 | 6.4 | 0.0 | 0.00 | 0.00 | 0.00 | 76 | 1008.1 |
| 20260509171528 | 24 | 346 | 3.2 | 0.0 | 0.00 | 0.00 | 0.00 | 72 | 1008.2 |
| 20260509170013 | 24 | 55 | 3.2 | 0.0 | 0.00 | 0.00 | 0.00 | 71 | 1008.2 |
| 20260509164505 | 24 | 295 | 1.6 | 0.0 | 0.00 | 0.00 | 0.00 | 71 | 1008.5 |
| 20260509161647 | 23 | 165 | 1.6 | 0.0 | 0.00 | 0.00 | 0.00 | 71 | 1008.7 |
| 20260509160039 | 23 | 181 | 1.6 | 0.0 | 0.00 | 0.00 | 0.00 | 71 | 1008.6 |
| 20260509153024 | 23 | 39 | 0.0 | 0.0 | 0.00 | 0.00 | 0.00 | 72 | 1008.5 |
| 20260509150005 | 22 | 39 | 0.0 | 0.0 | 0.00 | 0.00 | 0.00 | 72 | 1008.0 |
| 20260509141541 | 22 | 39 | 0.0 | 0.0 | 0.00 | 0.00 | 0.00 | 72 | 1008.1 |
| 20260509134523 | 22 | 180 | 0.0 | 0.0 | 0.00 | 0.00 | 0.00 | 72 | 1008.3 |
| 20260509131505 | 22 | 103 | 0.0 | 0.0 | 0.00 | 0.00 | 0.00 | 73 | 1008.3 |
| 20260509124559 | 22 | 156 | 0.0 | 0.0 | 0.00 | 0.00 | 0.00 | 73 | 1008.1 |
| 20260509123145 | 22 | 156 | 0.0 | 0.0 | 0.00 | 0.00 | 0.00 | 73 | 1008.1 |
| 20260509121636 | 22 | 156 | 0.0 | 0.0 | 0.00 | 0.00 | 0.00 | 73 | 1008.0 |
| 20260509120128 | 22 | 30 | 0.0 | 0.0 | 0.00 | 0.00 | 0.00 | 74 | 1008.2 |
| 20260509114537 | 22 | 30 | 0.0 | 0.0 | 0.00 | 0.00 | 0.00 | 74 | 1007.7 |
| 20260509113009 | 22 | 30 | 1.6 | 0.0 | 0.00 | 0.00 | 0.00 | 74 | 1007.7 |
| 20260509111601 | 21 | 55 | 0.0 | 0.0 | 0.00 | 0.00 | 0.00 | 74 | 1007.7 |
| 20260509104645 | 21 | 99 | 0.0 | 0.0 | 0.00 | 0.00 | 0.00 | 75 | 1007.4 |
| 20260509103036 | 21 | 99 | 0.0 | 0.0 | 0.00 | 0.00 | 0.00 | 75 | 1007.3 |
| 20260509101529 | 21 | 99 | 0.0 | 0.0 | 0.00 | 0.00 | 0.00 | 75 | 1007.4 |
| 20260509100020 | 21 | 99 | 0.0 | 0.0 | 0.00 | 0.00 | 0.00 | 75 | 1007.4 |
| 20260509094613 | 21 | 99 | 0.0 | 0.0 | 0.00 | 0.00 | 0.00 | 75 | 1007.4 |
| 20260509093005 | 21 | 99 | 0.0 | 0.0 | 0.00 | 0.00 | 0.00 | 75 | 1007.4 |
| 20260509090106 | 21 | 99 | 0.0 | 0.0 | 0.00 | 0.00 | 0.00 | 75 | 1007.4 |
| 20260509084547 | 22 | 99 | 0.0 | 0.0 | 0.00 | 0.00 | 0.00 | 75 | 1007.5 |
| 20260509081529 | 22 | 99 | 0.0 | 0.0 | 0.00 | 0.00 | 0.00 | 76 | 1007.5 |
| 20260509080017 | 22 | 99 | 0.0 | 0.0 | 0.00 | 0.00 | 0.00 | 76 | 1007.7 |
| 20260509074523 | 22 | 99 | 0.0 | 0.0 | 0.00 | 0.00 | 0.00 | 76 | 1008.1 |
| 20260509073005 | 21 | 99 | 0.0 | 0.0 | 0.00 | 0.00 | 0.00 | 77 | 1008.0 |
| 20260509070055 | 21 | 99 | 0.0 | 0.0 | 0.00 | 0.00 | 0.00 | 77 | 1008.0 |
| 20260509064542 | 21 | 99 | 0.0 | 0.0 | 0.00 | 0.00 | 0.00 | 77 | 1008.0 |
| 20260509063134 | 21 | 152 | 0.0 | 0.0 | 0.00 | 0.00 | 0.00 | 77 | 1008.0 |
| 20260509061525 | 21 | 232 | 0.0 | 0.0 | 0.00 | 0.00 | 0.00 | 78 | 1008.0 |
| 20260509060016 | 21 | 163 | 0.0 | 0.0 | 0.00 | 0.00 | 0.00 | 78 | 1008.1 |
| 20260509054607 | 21 | 142 | 1.6 | 0.0 | 0.00 | 0.00 | 0.00 | 78 | 1008.1 |
| 20260509051554 | 21 | 154 | 1.6 | 0.0 | 0.00 | 0.00 | 0.00 | 79 | 1008.1 |
| 20260509044639 | 21 | 158 | 1.6 | 0.0 | 0.00 | 0.00 | 1.24 | 79 | 1008.4 |
| 20260509040012 | 21 | 134 | 1.6 | 0.0 | 0.00 | 0.00 | 1.24 | 80 | 1008.1 |
| 20260509034505 | 21 | 283 | 0.0 | 0.0 | 0.00 | 0.00 | 1.24 | 80 | 1007.8 |
| 20260509023029 | 21 | 173 | 3.2 | 0.0 | 0.00 | 0.00 | 1.24 | 82 | 1007.2 |
| 20260509014505 | 22 | 110 | 0.0 | 0.0 | 0.00 | 0.00 | 1.24 | 82 | 1007.1 |
| 20260509011602 | 22 | 110 | 0.0 | 0.0 | 0.00 | 0.00 | 1.24 | 82 | 1006.9 |
| 20260509003131 | 23 | 120 | 0.0 | 0.0 | 0.00 | 0.00 | 1.24 | 82 | 1007.3 |
| 20260509001520 | 23 | 120 | 1.6 | 0.0 | 0.00 | 0.00 | 1.24 | 82 | 1007.5 |
| 20260509000009 | 23 | 120 | 0.0 | 0.0 | 0.00 | 0.00 | 1.24 | 81 | 1007.8 |